Regional Weather Roundup
Issued by NWS Newport/Morehead, NC

Current Version | Previous Version | Text Only | Print | Product List | Glossary Off
Versions: 1 2 3 4 5 6 7 8 9 10 11 12 13 14 15 16 17 18 19 20 21 22 23 24 25 26 27 28 29 30 31 32 33 34 35 36 37 38 39 40 41 42 43 44 45 46 47 48 49 50
000 ASUS42 KMHX 242325 RWRMHX WEATHER ROUNDUP FOR EASTERN NORTH CAROLINA NATIONAL WEATHER SERVICE NEWPORT/MOREHEAD CITY NC 700 PM EDT TUE MAY 24 2016 NOTE: "FAIR" INDICATES FEW OR NO CLOUDS BELOW 12,000 FEET WITH NO SIGNIFICANT WEATHER AND/OR OBSTRUCTIONS TO VISIBILITY NCZ015>017-031-032-045>047-102-103-250000- NORTH COAST CITY SKY/WX TMP DP RH WIND PRES REMARKS EDENTON SUNNY 80 60 50 SW3 30.06S ELIZABETH CITY SUNNY 78 56 46 W6 30.04R KITTY HAWK CLEAR 79 56 44 CALM 30.04S MANTEO PTSUNNY 76 62 61 S6 30.06S $$ NCZ045>047-081-094-103-104-250000- CENTRAL COAST CITY SKY/WX TMP DP RH WIND PRES REMARKS FRISCO SUNNY 71 61 70 SW15 30.09R $$ NCZ095-097-098-100-101-250000- SOUTHERN COAST CITY SKY/WX TMP DP RH WIND PRES REMARKS BEAUFORT SUNNY 72 58 61 SW17 30.10F CEDAR ISLAND NOT AVBL JACKSONVILLE SUNNY 74 57 55 SW9 30.09S PINEY ISLAND CLEAR N/A N/A N/A SW15 30.09S WILMINGTON SUNNY 76 55 48 S9 30.10S $$ NCZ011>013-027>030-043-044-078>080-089-090>093-098-250000- COASTAL PLAIN CITY SKY/WX TMP DP RH WIND PRES REMARKS AHOSKIE SUNNY 75 56 52 CALM 30.06R CLINTON SUNNY 80 57 44 CALM 30.09R ELIZABETHTOWN SUNNY 80 55 40 CALM 30.10R GOLDSBORO SUNNY 82 50 32 SW7 30.06F GREENVILLE SUNNY 81 54 39 CALM 30.08S HAVELOCK SUNNY 73 57 57 SW13G18 30.10S KENANSVILLE SUNNY 79 51 37 CALM 30.09S KINSTON SUNNY 81 52 36 CALM 30.08S NEW BERN MOSUNNY 76 58 53 S12 30.09R RICHLANDS SUNNY 77 59 53 S9 30.09S ROCKY MOUNT SUNNY 81 53 37 W5 30.06F WASHINGTON SUNNY 80 53 39 W3 30.06S WHITEVILLE SUNNY 78 58 49 S8 30.11R $$ AMZ130-135-150-152-154-156-158-170-250-252-270-ANZ085-086-088-633-658-670-250000- MARINE OBSERVATIONS STATION/POSITION TIME TEMP WIND PRES WAVE SWELL AIR SEA DIR/SP/G HT/PER HT/PER (UTC) (F) (DEG/KT/KT) (MB) (FT/S) (FT/S) CHESAPEAKE LIGHT 2200 72 180/ 6/ 6 1017.5 64 E VA BEACH 2150 62 57 220/ 10/ 10 1017.1 3/ 9 3/ 9 DUCK 2200 76 N/A 2 E DUCK 2211 64 N/A 2/ 9 OREGON INLET 2200 71 N/A 13E OREGON INLT 2300 62 N/A 3/ 9 2/ 9 HATTERAS CG 2200 71 N/A DIAMOND BUOY 2150 73 79 230/ 16/ 17 1018.5 3/ 9 3/ 9 CAPE LOOKOUT 2200 72 220/ 12/ 17 1019.1 BEAUFORT LAB 2200 73 N/A 30 SE NEW RVR IN 2225 73 N/A 3/ 4 27 SE WRIGHTSVLE 2308 73 73 220/ 14/ 17 1019.2 5 SE WRIGHTSVLE 2208 73 72 220/ 16/ 21 1020.1 225 S CAPE HAT 2150 73 78 330/ 6/ 10 1020.6 5/ 9 5/ 9 41 SE CHARLESTON 2150 75 76 130/ 8/ 10 1020.3 2/ 8 2/ 8 $$

USA.gov is the U.S. government's official web portal to all federal, state and local government web resources and services.